Theta_e
350 350 351 352 352 353 353 352 353 352 352 352 351 350 348 349 351 351 350 350 352 351 351 351 348 349 349 348 349 348 348 349 346 341 341 341 338 334 336 339 340 340 341 341 341 341 340 340 341 342 341 341 341 341 340 340 340 339 337 335 335 335 334 334 333 333 333 333 334 333 332 332 331 331 333 336 336 335 336 336 336 335 335 336 336
349 349 350 351 352 353 353 352 352 351 352 352 350 350 350 350 351 352 351 351 351 349 350 351 349 348 347 348 349 348 348 349 348 343 341 342 338 332 333 336 339 340 340 340 340 340 340 340 341 341 341 340 341 341 340 340 340 340 340 338 338 337 335 334 333 332 332 332 333 332 332 332 332 332 334 336 335 334 336 337 337 336 336 337 336
349 348 350 351 352 353 353 352 352 351 352 350 346 348 353 350 349 350 349 351 351 349 350 351 350 348 346 348 349 348 348 349 348 346 344 342 337 333 332 331 335 338 339 340 340 339 339 340 340 340 340 340 340 341 341 340 341 340 340 340 339 339 338 337 335 335 334 333 333 333 333 332 332 332 333 334 334 335 337 338 338 338 337 337 337
345 347 352 353 353 353 352 352 352 352 349 346 344 347 352 350 347 347 347 350 352 350 351 351 349 348 347 348 349 348 348 348 348 347 345 341 338 337 336 335 334 334 335 337 338 339 341 340 340 340 340 341 341 341 340 340 340 340 340 339 339 339 339 339 339 338 337 336 335 335 335 334 334 334 334 334 335 337 338 338 339 339 338 337 337
344 346 351 354 353 352 353 352 352 351 348 345 346 348 350 350 348 347 347 350 353 351 351 350 348 349 347 346 348 348 348 348 348 348 346 344 343 341 340 341 340 337 337 335 334 338 340 341 340 341 341 341 341 341 340 341 341 340 339 339 339 339 338 339 340 339 339 338 338 337 337 337 337 338 337 337 338 338 338 338 338 338 338 338 338
345 345 350 354 353 353 353 353 352 350 349 346 347 350 349 347 347 348 348 350 352 351 350 349 347 348 346 345 347 348 349 349 348 348 347 345 344 343 342 343 342 341 340 338 335 335 336 339 339 340 340 340 340 341 341 341 341 341 340 340 340 340 339 339 339 339 340 339 339 339 339 339 339 339 339 339 339 339 339 339 339 339 339 339 338
344 344 348 353 354 353 353 352 350 350 348 345 347 349 347 345 346 348 351 352 351 349 348 347 345 346 344 344 345 346 349 348 347 348 348 346 344 343 342 343 343 342 341 341 340 335 331 335 338 338 339 340 339 340 340 340 340 341 341 341 340 340 341 340 340 340 340 340 340 340 339 339 339 339 339 339 339 339 339 339 339 339 339 339 338
344 343 346 352 354 354 353 351 350 351 347 344 348 350 347 345 344 346 349 350 350 347 345 345 344 343 342 343 344 346 348 348 348 349 348 347 346 344 343 342 341 340 339 340 341 337 329 328 333 335 337 339 338 338 339 339 339 340 340 341 341 340 340 341 340 340 340 340 340 340 340 340 340 340 340 340 340 339 340 340 339 339 339 337 334
345 344 345 352 355 354 354 350 349 352 349 348 352 353 351 348 345 343 344 349 350 346 343 344 343 342 342 343 345 346 346 347 348 347 346 347 346 345 344 341 339 340 342 341 340 340 335 329 328 329 333 335 337 337 337 337 337 337 339 340 340 340 340 340 340 339 339 340 340 340 340 340 340 340 340 339 340 340 340 339 339 338 336 331 325
346 346 346 351 354 355 354 349 347 349 351 352 353 353 353 351 350 344 341 347 350 346 343 343 342 342 342 343 344 344 345 346 345 346 348 348 346 345 345 344 343 342 342 342 340 340 340 338 335 334 333 332 334 336 335 335 334 335 336 338 339 340 340 339 339 340 340 340 339 339 339 339 339 339 339 339 339 339 339 338 337 334 328 321 317
347 347 347 349 353 355 352 347 347 347 350 354 355 352 349 348 351 346 341 343 344 344 344 343 343 342 342 343 343 342 344 345 346 347 349 349 347 346 346 346 345 343 341 342 344 342 341 342 342 342 340 334 332 333 334 334 334 334 334 335 338 339 340 340 340 340 340 339 339 339 339 339 339 338 338 338 338 337 337 336 332 326 320 316 316
345 345 345 346 350 352 349 346 349 349 349 353 355 352 347 345 347 345 342 342 343 343 344 344 344 342 342 342 343 343 343 344 347 348 349 350 348 348 347 346 345 344 343 343 344 344 342 341 342 344 344 340 336 334 333 334 334 334 334 334 335 335 336 337 338 338 338 338 339 339 339 339 338 336 336 336 336 334 333 329 323 318 317 317 319
342 342 343 344 345 346 345 344 347 348 346 349 351 348 346 346 346 345 344 344 345 344 343 344 344 342 342 342 342 343 343 344 348 348 348 348 348 347 346 345 344 343 343 341 340 342 343 340 340 343 345 343 341 339 337 336 336 336 335 335 335 335 334 334 335 335 336 337 338 339 339 337 334 333 333 332 329 327 324 320 317 317 318 319 320
342 342 342 343 342 343 343 341 343 344 343 345 346 345 346 346 347 350 349 347 346 344 343 343 343 342 342 342 342 342 344 345 347 346 346 346 346 346 345 344 345 343 343 342 340 341 344 342 339 338 338 339 341 342 341 339 339 337 335 334 335 335 335 334 334 334 335 336 337 335 333 331 329 328 328 325 322 319 318 318 318 319 320 320 320
344 343 342 342 342 342 343 341 340 341 342 343 343 344 346 346 349 353 352 350 347 344 343 343 342 342 341 342 342 341 343 345 345 345 344 344 344 344 344 344 344 341 341 343 343 342 343 342 337 331 329 331 334 337 337 337 338 336 334 333 333 333 333 332 330 330 331 331 329 326 324 323 323 323 321 319 318 318 318 319 320 320 320 320 319
345 345 344 343 342 343 343 341 341 341 342 343 342 344 347 350 351 350 351 353 349 345 344 342 341 343 343 342 340 341 343 342 343 344 343 343 344 343 343 344 343 338 339 343 343 342 342 341 337 331 330 329 326 327 329 334 337 336 334 333 332 331 330 327 326 324 324 323 322 320 318 318 319 319 318 318 318 319 320 320 321 320 320 320 320
344 346 345 343 343 343 342 341 342 343 342 342 343 345 348 353 352 348 350 352 350 347 344 343 342 341 343 343 341 341 341 340 341 343 343 342 343 343 343 344 343 340 341 342 339 339 342 342 337 333 333 331 326 324 326 330 334 337 338 335 332 329 325 322 321 320 319 319 319 318 317 317 317 318 319 320 320 321 321 320 321 320 321 321 321
343 345 345 344 343 343 343 342 342 343 342 341 342 343 345 350 351 350 350 349 348 348 346 344 342 339 340 342 340 341 341 342 343 344 343 342 341 342 342 342 343 342 342 341 340 341 343 343 340 337 335 332 329 325 323 325 328 334 336 331 326 324 322 320 319 319 318 318 318 317 317 318 319 320 321 321 321 321 321 321 322 322 322 323 323
342 344 344 344 344 344 343 342 342 341 341 340 341 345 349 350 349 349 349 347 347 349 347 346 344 341 342 342 341 341 341 341 343 344 344 343 342 341 341 342 342 343 343 342 343 343 343 343 343 343 339 334 331 327 324 322 322 326 326 323 321 321 321 320 319 319 319 318 318 318 319 319 321 321 321 322 321 321 322 322 323 323 324 324 324
340 341 343 345 344 344 343 343 342 340 340 338 339 345 349 349 347 348 348 347 347 349 347 346 346 345 344 343 343 343 341 341 343 343 344 344 343 341 341 342 340 341 342 341 341 342 342 343 342 344 343 339 333 329 327 325 322 323 323 322 323 322 321 321 320 320 320 319 319 319 320 321 322 322 322 322 322 323 323 324 324 324 324 324 323
339 339 341 344 344 343 344 344 342 340 340 339 338 341 343 345 348 348 348 348 349 348 346 345 346 346 346 345 345 345 344 344 344 343 344 344 343 342 342 341 341 341 341 340 341 340 341 342 342 341 342 343 338 330 329 327 324 324 324 324 324 323 322 321 320 321 320 320 321 321 322 322 322 322 322 322 323 323 324 325 325 324 325 324 324
338 339 340 342 343 342 344 346 343 341 339 339 338 338 339 342 346 347 349 349 349 349 347 344 343 344 346 344 344 346 345 345 345 344 345 345 344 343 342 342 343 343 342 341 341 341 340 341 341 341 342 344 342 335 328 326 325 325 325 325 325 325 324 322 321 321 321 321 322 322 322 322 322 323 323 323 323 324 324 324 324 324 325 325 324
339 341 340 341 343 343 344 346 345 342 339 339 339 338 341 341 342 345 348 349 350 350 348 345 342 339 342 343 342 346 346 344 345 344 344 345 345 344 343 343 342 342 343 342 340 340 341 341 341 341 341 342 343 339 330 325 326 325 324 324 324 324 324 324 323 322 322 321 322 322 322 322 322 322 323 323 323 323 324 324 324 325 325 325 325
339 342 342 341 342 341 343 345 345 343 342 341 340 340 343 344 341 343 346 347 348 349 349 347 344 341 344 346 345 345 345 343 342 342 344 344 344 344 344 343 343 342 344 342 341 341 342 341 342 342 342 341 340 336 330 326 327 325 325 325 325 325 324 324 324 324 324 323 323 323 323 322 323 322 323 322 323 323 323 323 324 324 324 324 325
339 341 342 343 342 341 342 343 343 343 343 343 341 341 343 343 340 340 344 345 346 348 349 349 347 344 346 348 348 346 345 344 343 342 343 343 343 344 344 344 344 343 343 341 338 340 341 341 341 340 339 338 335 332 330 330 329 327 327 327 327 327 327 327 326 325 325 325 324 324 324 324 323 323 323 323 323 323 323 323 323 323 323 324 324
339 339 341 342 342 341 343 343 343 344 344 344 344 343 344 343 343 341 341 342 344 346 348 349 348 346 344 346 347 347 346 345 346 344 343 343 343 344 344 344 344 343 345 344 340 340 343 342 340 337 333 333 333 332 332 332 333 330 329 329 330 330 330 329 329 329 328 328 327 327 326 326 326 325 324 324 323 324 323 323 323 324 323 324 323
338 339 339 340 339 342 344 343 344 345 345 345 345 344 344 345 345 344 341 341 342 344 346 348 349 347 345 343 345 348 349 348 347 347 346 345 344 343 343 344 345 344 345 346 345 345 344 341 340 337 332 331 331 331 331 332 334 333 331 331 331 330 331 331 331 331 330 330 330 330 329 328 328 327 326 326 325 325 324 324 323 324 323 324 323
338 339 339 339 339 342 343 342 343 344 345 346 347 344 342 344 346 344 341 340 342 343 343 346 347 347 346 344 342 345 349 349 348 348 347 343 339 336 337 341 344 346 345 345 347 346 345 342 340 336 331 331 331 330 331 332 332 332 332 332 332 331 331 330 331 331 330 331 331 331 331 331 331 330 330 329 328 327 327 326 325 324 324 323 324
337 338 339 339 339 340 341 341 342 343 344 345 346 344 342 344 345 344 340 338 340 340 341 343 344 344 345 345 342 342 345 345 344 345 342 333 330 328 329 334 336 340 344 345 344 343 344 343 341 338 332 329 330 329 329 330 331 331 331 331 332 332 331 331 332 332 331 331 331 331 331 331 331 331 331 331 331 330 330 330 329 327 326 324 323
338 338 338 338 339 338 339 340 341 341 342 342 343 343 342 344 345 343 341 338 338 339 339 340 340 341 344 344 343 342 343 342 345 348 343 332 331 330 328 327 327 329 335 336 336 337 341 342 343 342 337 332 332 332 332 332 331 332 332 332 332 331 331 332 332 332 332 331 332 331 331 331 331 330 330 331 331 331 332 332 332 331 331 329 326
338 338 338 338 338 337 337 338 339 340 341 341 342 342 342 344 342 342 342 339 340 341 338 337 338 338 340 341 342 344 344 344 346 350 347 338 338 338 335 331 329 328 328 329 332 334 338 341 341 341 340 337 335 335 335 335 335 335 335 334 334 334 334 333 332 332 332 332 332 332 332 332 331 331 331 331 330 330 331 332 333 333 333 333 331
337 337 337 337 337 337 337 338 338 339 340 341 341 339 340 342 339 340 342 341 342 343 338 336 337 337 337 337 339 343 345 342 342 345 345 342 340 342 341 339 337 337 335 335 337 336 336 339 338 339 341 340 338 336 335 336 335 335 335 335 335 335 335 335 335 335 334 334 334 334 333 333 333 333 333 333 332 331 331 331 332 333 334 334 334
339 338 337 336 337 337 337 337 338 339 339 339 340 338 337 339 337 337 340 339 342 345 342 338 336 336 336 336 336 340 342 341 339 341 344 343 341 341 340 339 340 341 340 339 339 339 338 337 337 337 338 337 336 335 335 335 335 335 335 334 334 334 334 334 335 335 334 335 334 335 335 334 335 335 334 334 334 334 334 334 333 333 333 334 335
339 338 337 336 336 336 337 337 337 338 338 338 340 338 335 335 335 335 337 337 340 344 344 339 336 335 337 336 335 337 339 338 337 337 341 344 347 347 344 340 339 340 339 339 339 338 338 338 339 338 337 336 335 334 333 334 334 334 334 334 334 334 334 334 334 334 333 333 333 333 334 335 335 335 335 336 336 335 335 335 335 334 333 333 334
339 337 337 336 336 336 336 336 336 337 338 338 340 339 335 333 333 333 336 337 337 339 340 338 336 336 336 336 335 336 337 337 336 336 337 339 342 344 343 340 339 339 338 337 337 337 337 338 338 338 337 337 336 334 335 334 334 334 334 334 334 334 335 334 334 334 333 334 334 335 335 336 336 336 336 336 336 336 336 336 336 335 335 334 334
338 337 336 336 336 335 335 335 335 336 336 337 338 338 334 331 331 332 333 335 336 336 336 336 337 337 336 337 337 336 336 336 335 335 335 336 335 336 337 336 336 337 337 337 337 339 339 337 335 335 336 336 335 334 335 334 334 334 334 332 333 334 336 338 339 338 339 339 340 339 339 339 340 338 337 336 336 335 336 336 336 335 335 334 333
338 337 335 335 336 335 335 334 335 335 335 336 336 335 334 332 331 331 331 332 334 334 335 336 337 337 337 338 338 337 337 336 335 334 334 333 334 333 334 334 334 337 341 342 343 346 346 342 338 336 335 335 335 334 334 334 333 333 332 333 336 339 342 344 344 342 343 345 345 345 344 343 344 343 342 341 340 338 337 336 336 336 336 336 334
338 337 336 336 336 335 334 334 334 334 334 334 334 333 333 332 331 330 331 331 332 333 334 335 337 337 337 337 337 336 335 335 334 334 333 333 333 333 333 333 333 337 341 343 345 350 351 349 346 344 341 338 337 335 334 334 334 333 333 336 340 344 345 346 346 345 345 348 348 348 348 349 349 349 348 348 347 347 345 342 340 338 337 337 336
338 337 336 335 335 335 335 334 334 334 334 334 333 331 331 331 332 331 331 331 332 332 332 333 334 335 335 334 335 334 334 333 333 333 332 332 332 332 332 333 333 335 338 342 347 350 352 353 352 349 346 341 337 335 333 333 334 335 339 345 348 347 346 347 349 349 349 349 347 347 348 349 351 351 351 350 350 351 350 349 347 344 341 339 338
338 336 336 335 335 334 334 334 334 334 334 333 332 331 330 330 331 332 332 332 332 332 331 331 331 333 334 335 334 333 332 331 331 331 331 331 331 331 331 332 334 337 342 347 351 352 352 354 354 352 349 341 336 334 332 336 341 345 350 354 354 353 352 353 353 352 352 352 350 349 351 352 352 352 351 351 350 351 351 352 351 349 347 345 343
340 338 338 339 336 333 332 333 333 333 333 332 331 329 328 328 329 330 332 332 332 332 331 330 331 331 332 334 335 334 331 330 330 330 330 329 330 330 331 331 334 342 349 351 352 353 353 354 356 355 352 345 340 339 340 347 353 354 355 356 356 356 355 354 353 352 354 354 353 352 353 353 353 353 351 351 351 350 349 350 351 352 352 351 349
343 342 341 342 341 338 333 332 333 333 331 331 330 328 327 327 328 328 330 331 331 331 331 331 330 330 329 331 333 332 329 330 329 329 329 329 329 329 331 332 334 343 352 354 353 354 355 355 356 356 354 350 347 347 351 355 357 356 356 356 357 356 356 356 355 355 355 355 354 354 354 354 353 353 352 352 352 352 350 346 343 345 347 349 351
345 345 344 344 345 345 341 335 332 331 331 331 330 328 327 327 327 328 329 329 330 330 330 330 329 329 328 328 329 328 328 329 329 329 329 329 329 329 330 333 334 340 348 352 354 355 356 356 356 357 356 354 349 351 357 358 356 356 356 356 357 357 357 357 357 356 356 356 354 354 353 353 352 349 346 344 344 344 343 338 333 333 334 336 339
346 346 347 346 346 348 349 345 339 333 331 331 330 329 328 327 327 327 328 328 329 328 329 328 328 328 328 328 328 328 328 329 328 329 329 328 329 330 331 333 336 339 343 347 350 353 354 356 357 358 357 353 348 353 358 357 355 355 355 355 356 357 356 357 357 356 355 354 354 353 352 349 345 340 335 335 333 332 332 331 329 329 329 329 330
347 347 347 348 347 348 349 349 345 339 335 332 331 330 329 329 328 328 329 328 328 328 327 327 327 328 327 328 328 328 328 329 328 327 329 329 330 331 332 334 336 340 344 345 347 350 351 353 355 355 353 350 350 354 357 357 356 356 356 356 356 355 356 356 355 355 354 353 351 348 344 337 333 332 328 327 330 330 328 328 328 329 329 329 329
348 347 347 348 348 347 348 348 347 344 340 336 332 330 331 330 329 329 330 330 330 329 329 328 328 328 328 328 328 328 328 328 328 328 329 330 331 333 336 338 338 340 344 346 347 349 350 352 353 352 351 353 355 357 356 357 357 356 356 356 355 354 354 355 355 352 350 347 341 339 337 330 330 337 337 335 337 338 335 332 329 328 329 329 329
348 347 347 348 348 348 348 348 347 346 344 339 333 329 330 330 330 331 331 331 331 330 329 329 329 328 328 328 328 328 329 328 329 330 330 330 332 335 341 346 348 347 350 352 351 351 351 352 352 351 352 355 357 358 357 356 356 355 355 355 355 355 354 354 353 347 340 336 333 337 340 335 334 340 340 338 341 343 341 338 332 328 329 329 329
348 347 347 348 348 348 349 349 349 348 345 340 336 332 330 330 332 333 333 333 333 331 330 329 329 328 328 328 329 329 330 330 331 330 331 333 334 336 340 347 351 354 356 356 356 354 352 350 352 352 354 356 358 358 357 355 355 355 355 355 355 352 347 345 343 337 330 332 335 340 343 340 337 339 338 336 338 339 339 338 335 331 331 331 330
348 348 347 348 348 348 348 349 349 348 347 343 339 336 333 333 334 334 335 335 334 333 331 330 330 330 329 329 331 332 332 332 332 331 333 335 337 337 339 342 349 355 357 357 358 357 352 350 353 355 356 358 358 357 356 355 355 355 354 352 348 341 333 331 331 329 328 333 337 340 340 339 338 341 342 340 340 340 339 340 340 339 337 336 336
348 348 348 348 348 347 348 349 349 349 348 346 343 340 338 338 337 337 337 337 336 335 333 332 332 331 331 330 332 333 334 334 334 333 335 338 339 340 340 342 347 353 356 358 359 358 356 355 355 356 358 358 357 356 355 354 353 351 347 341 334 329 327 328 331 330 327 330 334 336 335 336 338 340 341 340 339 339 340 342 342 342 342 341 342
348 348 348 348 348 348 349 349 350 350 350 349 348 345 342 341 341 342 341 341 340 338 335 334 334 333 333 333 333 333 335 336 336 336 338 340 341 342 342 344 348 352 356 359 359 359 359 358 356 356 358 357 354 354 354 351 345 339 332 329 327 328 330 331 332 334 332 331 333 336 337 337 338 338 338 339 340 339 340 342 342 342 343 343 343
Wind_Speed
6 6 6 6 5 6 5 4 4 4 4 4 4 4 5 5 5 5 4 4 3 2 3 3 4 5 6 6 6 6 6 5 5 6 6 4 4 6 5 5 5 5 5 5 4 4 5 5 4 4 5 4 4 4 4 5 5 5 4 4 4 4 3 3 3 3 3 3 4 5 6 6 5 5 6 6 7 8 8 8 9 9 10 10 11
6 6 6 6 5 5 5 5 4 4 4 3 3 4 5 5 5 4 3 3 2 1 3 3 3 4 5 6 6 5 6 5 5 5 6 5 3 5 6 5 5 5 5 5 4 4 4 4 3 3 4 4 3 3 3 3 3 3 3 4 4 4 4 4 4 4 4 4 4 5 5 5 5 5 5 6 7 7 8 9 9 10 11 11 11
6 7 6 5 5 4 4 4 4 4 4 2 3 5 5 5 5 4 3 3 2 2 4 3 4 4 5 6 5 5 6 5 5 5 6 6 3 3 4 4 5 5 4 4 4 3 3 3 3 3 2 3 3 3 3 2 2 2 2 3 3 3 4 4 4 5 5 5 4 4 5 5 5 5 5 6 7 7 8 9 9 10 11 11 11
8 7 6 5 4 4 4 4 4 4 2 3 5 5 5 5 5 5 5 4 2 2 4 4 4 5 5 6 5 5 5 6 5 5 5 6 5 4 4 4 4 4 3 3 2 2 2 2 2 2 2 2 2 2 2 2 2 2 2 2 3 3 3 3 4 4 4 5 5 5 5 5 5 5 6 6 6 8 9 9 10 10 10 11 11
8 8 6 4 3 4 4 3 3 3 2 5 6 5 5 5 5 5 5 4 3 2 4 4 4 5 4 4 5 4 5 5 5 6 5 6 6 5 5 4 3 3 3 3 2 1 1 1 1 1 1 1 1 1 1 1 2 2 2 2 3 3 3 3 3 4 4 4 5 5 5 5 5 6 6 6 7 8 9 9 10 9 10 10 11
7 8 6 4 3 3 3 2 2 2 3 5 6 6 7 7 6 5 5 4 4 4 5 5 4 4 4 4 4 4 4 5 5 6 6 5 5 5 5 4 3 3 3 4 3 1 1 1 1 1 1 0 1 1 1 1 2 2 2 2 2 3 3 3 3 4 4 4 5 5 6 6 6 7 7 7 8 8 9 9 9 9 10 11 11
6 7 5 4 2 2 2 1 1 2 3 5 6 6 7 7 7 7 5 4 4 5 5 5 4 4 4 4 3 4 4 3 4 5 5 5 5 5 5 4 3 3 3 3 3 3 2 2 3 2 2 1 2 1 1 1 2 2 2 2 3 3 3 3 3 4 4 5 5 6 6 7 7 7 7 7 8 8 8 9 9 9 10 10 10
6 7 6 3 1 1 1 1 1 2 3 6 6 5 6 7 7 6 4 5 4 4 5 4 4 4 4 4 4 4 4 3 4 4 4 4 4 4 4 4 4 4 3 3 1 2 3 2 2 3 3 2 2 2 2 2 2 3 3 3 3 3 4 4 4 4 5 5 6 6 6 7 7 7 7 7 8 8 8 8 9 10 10 9 8
7 7 6 3 1 1 1 1 2 2 2 5 6 4 5 7 7 6 4 5 4 4 4 4 4 4 4 5 5 5 3 3 3 2 3 4 4 3 3 3 4 4 4 3 1 1 2 3 2 2 2 3 3 3 3 2 2 3 4 4 4 3 4 4 4 4 5 6 6 6 7 7 7 8 8 8 8 8 8 9 9 9 9 8 7
7 7 6 4 2 1 1 1 1 2 3 4 4 3 4 6 6 6 5 5 4 4 4 4 4 4 4 4 5 4 3 2 1 2 3 2 3 3 2 2 2 3 3 2 2 2 3 3 3 3 2 2 3 3 3 3 3 3 4 4 4 4 4 4 4 4 5 6 6 6 6 7 7 7 8 8 8 8 8 8 8 8 7 7 7
7 7 6 5 3 2 2 1 2 4 4 3 3 3 4 5 5 5 6 4 4 4 3 3 4 4 4 3 4 4 2 1 1 2 2 1 2 2 2 1 1 1 2 2 1 2 3 3 3 3 3 4 4 4 4 4 4 4 4 4 4 5 5 5 5 5 6 6 6 6 6 7 7 7 8 8 8 8 8 7 7 7 7 7 7
8 7 6 6 4 3 3 2 2 3 3 3 2 3 5 5 5 5 5 3 3 3 2 3 3 3 4 3 4 4 2 1 1 1 1 1 1 2 2 1 1 1 1 1 1 1 2 2 3 3 3 4 5 4 5 5 5 5 5 5 5 5 5 6 6 6 7 7 6 6 6 7 7 7 7 7 7 7 6 6 6 7 7 7 7
9 8 7 7 5 4 4 2 1 1 1 2 2 3 5 5 5 5 4 2 3 3 2 3 2 2 3 2 3 3 2 2 1 0 1 0 0 1 2 2 2 3 2 2 2 2 3 3 3 3 2 4 4 4 5 5 5 5 5 5 5 5 5 6 6 7 7 7 7 6 6 7 7 7 7 6 6 6 6 6 6 6 6 7 7
9 9 8 8 6 5 4 3 2 1 0 1 2 4 5 5 5 5 4 3 3 3 2 3 3 2 2 2 2 2 2 2 1 1 1 1 1 2 2 2 2 3 3 3 3 3 2 3 3 3 3 4 4 4 4 5 5 5 5 4 4 4 4 4 5 5 5 6 6 6 7 7 7 6 6 5 5 5 6 6 6 6 6 7 7
9 9 9 8 7 6 5 5 4 3 1 1 2 3 4 5 4 3 3 3 3 3 2 3 3 2 2 2 2 1 2 3 1 1 2 1 1 1 1 2 1 1 2 3 3 2 1 1 3 3 3 3 4 4 5 5 5 5 4 3 3 3 4 4 4 4 5 5 6 6 6 6 6 5 5 5 5 5 5 6 6 6 6 7 7
10 9 9 9 8 7 7 6 5 4 3 2 2 2 3 4 3 2 2 3 3 3 2 3 3 3 2 2 2 2 3 3 2 2 1 1 1 1 1 1 2 2 2 2 1 1 2 3 4 5 5 4 3 4 4 5 4 4 4 3 3 4 4 5 5 5 5 5 5 5 5 5 4 4 5 5 5 5 5 6 6 6 7 7 7
12 10 10 9 9 8 8 7 6 5 5 4 3 3 2 2 3 3 3 2 2 2 2 2 2 2 2 1 1 2 4 4 3 3 2 2 1 1 2 2 3 3 2 2 3 3 3 4 5 6 6 6 5 3 4 4 5 4 5 5 5 5 5 5 5 5 4 4 4 4 4 4 4 4 4 5 5 6 6 6 7 7 7 8 8
13 12 11 10 10 9 9 8 8 7 6 6 5 3 2 2 2 2 2 2 2 2 2 2 1 2 2 1 1 2 4 4 4 4 4 2 1 2 2 2 3 4 3 3 5 4 3 4 6 6 6 5 6 5 4 4 4 4 5 6 5 5 5 5 5 4 4 4 4 3 3 3 3 4 4 5 6 6 7 7 7 8 8 9 9
14 13 12 11 10 9 9 9 8 8 7 6 5 4 3 3 2 2 2 2 3 2 2 2 1 1 1 1 1 1 2 2 3 4 4 4 3 1 1 2 3 3 4 3 4 4 4 4 5 5 6 6 6 5 4 3 3 3 4 5 5 4 4 4 4 4 4 4 3 3 3 3 3 4 5 6 6 7 7 8 8 8 9 9 9
16 15 13 12 11 10 10 10 9 9 8 7 6 5 5 5 2 2 2 2 2 2 1 1 1 1 1 1 0 1 2 2 2 3 3 4 3 2 2 2 2 2 3 3 3 4 4 5 4 5 6 7 6 5 4 4 4 3 4 4 5 5 4 4 4 4 4 4 4 3 4 4 4 5 5 6 6 7 8 8 9 9 9 9 9
18 16 15 13 13 11 10 10 10 9 8 8 8 7 7 5 3 2 2 1 1 2 1 0 1 1 1 1 1 1 1 1 2 2 2 3 2 3 2 2 2 2 2 3 3 4 4 5 6 5 5 6 7 6 4 4 4 4 4 4 5 5 5 5 5 5 5 5 5 5 5 6 6 6 7 7 7 8 8 9 9 9 10 10 9
19 18 17 15 14 13 11 11 10 9 9 8 8 8 7 6 4 3 2 1 1 1 1 1 1 1 2 2 1 1 2 2 2 2 1 2 3 3 3 3 3 3 3 3 3 4 5 5 6 5 5 6 7 6 5 5 5 5 5 5 5 6 6 6 6 6 7 7 7 7 7 8 8 9 9 9 10 10 10 11 11 11 11 11 11
20 19 18 17 16 14 12 11 11 10 10 9 9 8 7 7 6 4 3 2 1 1 0 0 1 1 2 2 2 1 2 2 2 2 2 2 3 4 4 4 4 4 4 5 6 6 6 6 6 6 6 6 7 7 7 6 6 6 6 6 7 7 7 7 7 7 8 8 8 8 9 9 10 10 11 11 12 12 12 12 13 12 12 12 12
21 20 19 18 18 16 14 13 12 11 10 9 9 8 7 8 7 5 3 3 2 2 1 1 1 2 2 3 3 2 3 3 3 3 3 4 4 5 5 5 5 4 5 7 7 6 6 6 6 6 7 7 7 7 6 6 6 6 7 7 7 7 7 7 8 8 8 9 9 9 10 10 11 11 12 13 13 14 14 14 14 14 14 14 14
23 22 20 18 18 17 15 14 13 12 11 10 9 8 8 8 8 6 5 4 3 3 2 2 2 2 2 3 4 3 4 4 4 4 4 4 5 5 6 5 5 6 6 6 5 4 5 5 5 6 7 7 7 6 4 5 6 5 6 7 7 7 7 8 8 9 9 9 10 10 10 11 11 12 12 13 14 14 15 15 16 16 16 16 16
23 22 21 19 18 16 15 15 14 12 12 11 10 9 9 9 8 8 7 6 5 4 3 3 3 3 3 4 4 4 5 4 4 4 4 4 5 5 6 7 7 7 7 7 6 4 3 3 4 4 5 5 5 4 3 4 6 7 7 8 9 9 9 10 10 10 10 11 11 11 12 12 12 12 13 13 14 15 16 16 17 17 17 17 17
23 23 22 20 18 16 15 15 14 14 13 12 12 11 10 9 9 9 9 8 6 5 4 4 4 4 4 5 4 4 5 5 4 5 4 5 5 6 6 7 8 7 7 7 6 5 3 3 3 3 4 3 2 2 3 4 7 9 10 11 12 12 12 13 13 14 14 14 14 14 14 14 14 14 15 15 16 16 17 17 18 18 18 19 19
24 22 22 21 19 17 16 16 15 15 14 13 13 12 11 10 9 10 10 9 8 7 6 6 6 5 5 6 5 5 6 6 5 5 6 6 7 7 7 7 8 8 8 7 6 5 4 3 4 4 4 3 4 6 9 10 12 13 13 14 15 16 15 15 15 16 17 17 17 17 17 17 17 18 18 18 18 18 19 19 19 20 20 20 20
24 22 21 21 20 18 18 17 16 16 15 14 14 13 12 11 10 11 11 10 9 9 8 7 7 7 7 7 7 6 6 6 6 6 7 8 8 8 7 7 8 9 9 10 9 7 5 4 5 7 8 9 11 14 15 15 15 15 17 17 18 19 19 18 17 18 19 19 20 20 20 20 21 21 21 21 21 21 22 21 21 21 21 22 22
24 23 22 21 20 19 19 18 18 17 16 15 15 14 13 13 12 12 12 12 11 10 9 8 8 8 8 8 8 7 7 7 6 7 8 8 8 8 8 8 9 9 9 12 13 10 8 7 6 8 13 16 17 16 16 16 16 16 17 19 19 20 20 21 21 21 21 22 22 22 23 23 24 24 24 25 25 25 25 25 25 24 24 24 24
25 24 23 22 21 20 19 19 19 18 17 16 16 15 15 14 14 13 13 14 12 10 10 9 9 9 9 9 9 8 8 8 7 8 9 9 8 9 10 10 10 10 10 13 15 14 11 11 11 11 14 17 18 18 17 17 17 17 17 19 20 21 21 23 23 23 23 24 24 25 25 26 27 27 27 28 28 28 28 28 28 28 27 26 26
25 25 24 23 22 21 20 20 19 19 19 18 17 17 17 16 16 15 14 14 12 10 10 10 10 11 10 9 9 8 9 9 9 9 10 10 10 10 11 12 12 12 12 13 17 18 16 15 16 16 15 16 18 20 19 18 19 19 19 20 20 21 23 24 24 24 25 25 26 26 27 28 29 29 30 31 31 31 31 31 31 31 31 30 29
26 26 25 25 24 23 22 21 20 20 20 19 19 19 19 18 18 17 16 16 14 11 10 11 12 12 11 11 10 10 10 10 11 11 11 12 12 12 12 13 13 14 14 14 17 21 21 19 20 20 19 19 20 20 20 20 21 22 23 23 23 24 24 25 26 26 26 26 26 27 27 28 29 30 31 32 33 33 33 34 34 34 34 33 33
27 26 26 26 25 25 24 23 22 21 21 20 19 20 20 20 20 19 19 18 17 14 12 12 13 12 12 12 11 11 11 12 12 11 12 12 12 12 13 14 15 15 16 17 18 20 22 22 21 22 22 23 24 23 24 24 24 24 26 27 27 28 28 28 28 29 30 29 28 27 28 29 30 31 32 32 33 34 34 35 35 36 36 36 35
28 27 27 27 27 27 26 25 24 23 22 21 20 20 21 22 22 21 20 20 19 18 16 15 14 13 14 13 12 12 12 12 12 12 13 14 13 14 14 15 16 16 17 18 19 20 22 23 23 23 23 24 26 27 27 28 28 29 29 30 30 31 31 31 31 32 32 31 30 29 29 29 30 30 31 32 32 33 34 34 35 36 37 37 37
28 28 27 27 28 28 27 27 26 24 23 22 21 21 22 23 23 22 22 22 21 20 19 17 15 15 15 14 14 14 13 13 14 13 14 15 15 15 15 16 16 16 17 19 20 20 21 23 25 25 25 27 28 28 28 30 31 32 33 33 33 31 30 30 30 32 32 31 31 30 30 30 30 31 31 32 33 33 34 34 35 35 36 37 38
28 28 28 28 28 29 29 28 27 26 25 24 23 22 22 23 23 23 23 23 22 21 20 19 17 16 16 16 15 15 15 15 15 15 15 16 16 16 17 17 18 17 15 16 16 16 17 21 24 26 27 28 29 29 29 30 31 33 34 34 32 32 31 30 30 31 32 33 34 34 33 32 32 32 32 33 34 34 35 35 35 36 36 37 38
29 29 29 29 29 30 29 28 28 27 26 25 25 24 24 23 24 24 23 23 22 21 20 19 19 18 18 17 17 17 16 16 16 17 17 17 18 19 19 20 20 18 17 16 15 13 14 17 20 23 25 27 29 31 30 30 31 33 34 34 32 31 32 32 33 33 33 34 35 36 37 37 36 35 35 34 33 33 34 34 35 36 36 37 37
29 30 30 30 30 30 29 29 28 28 27 27 26 26 26 25 25 24 24 23 22 21 20 20 20 19 19 18 18 18 17 17 18 18 19 20 20 21 21 21 20 20 19 18 16 14 14 14 16 20 23 26 29 31 31 30 31 32 33 33 32 31 33 35 35 35 34 35 35 36 36 37 37 37 37 36 34 33 33 33 34 36 36 37 37
30 31 31 30 30 30 30 29 29 28 28 28 27 28 27 27 26 26 25 24 24 23 22 22 21 20 20 20 19 19 18 18 19 19 20 21 22 22 22 21 21 19 17 15 14 14 14 14 16 17 20 26 29 30 30 29 29 30 29 27 25 26 28 30 31 31 31 31 32 32 31 31 34 36 38 39 38 35 34 34 34 36 37 37 38
30 30 30 30 30 31 31 30 30 30 29 29 29 29 29 28 28 27 27 26 26 25 24 23 22 21 21 21 21 21 21 20 19 20 21 22 23 23 22 22 20 17 13 12 12 13 13 14 14 15 19 25 27 28 29 26 23 26 26 22 20 21 22 24 27 27 25 25 28 31 29 26 28 33 36 38 38 37 37 37 35 35 36 36 35
30 30 30 29 30 30 31 31 30 30 30 30 29 29 29 29 29 28 29 28 27 27 26 25 24 23 23 22 22 23 24 23 21 21 23 23 24 24 23 22 21 17 12 12 13 13 14 15 15 15 19 23 26 26 25 20 18 23 24 22 21 21 21 22 23 23 22 22 28 35 37 34 31 34 35 33 30 30 33 36 36 34 34 33 32
31 31 30 31 30 29 30 30 30 30 30 30 30 29 28 29 29 29 29 29 29 28 27 27 26 25 25 24 24 25 25 24 23 23 24 25 25 25 23 22 21 19 16 14 14 13 14 16 16 16 18 22 26 24 19 17 19 23 26 26 24 23 23 24 23 24 25 26 29 36 43 43 39 40 44 41 37 35 35 37 40 39 36 34 33
33 32 32 32 32 30 30 30 31 31 31 31 31 30 29 29 29 29 29 29 30 30 29 28 27 26 26 26 25 26 26 26 25 24 25 26 25 25 23 22 22 21 20 18 18 17 17 17 17 17 19 24 28 23 17 18 23 26 29 31 28 25 25 25 24 23 27 31 33 36 43 45 41 41 46 47 44 44 44 44 46 45 43 40 37
34 34 34 33 33 33 32 32 32 31 32 32 32 30 30 30 29 29 29 30 30 30 30 29 28 28 28 27 26 26 26 27 26 25 25 26 26 24 23 23 24 23 22 22 21 21 21 21 21 23 23 24 28 25 20 22 25 26 28 31 30 28 28 28 27 27 30 36 38 38 43 47 44 43 48 49 47 48 49 48 47 47 47 46 43
35 35 35 34 34 34 33 33 33 32 32 33 33 31 30 30 30 30 30 30 31 31 31 30 30 29 29 29 28 27 27 27 26 26 26 25 25 24 22 22 23 23 23 23 23 23 23 23 25 27 25 23 26 26 24 23 23 23 24 27 31 33 34 36 36 34 35 38 38 37 42 47 43 39 43 45 42 42 45 47 48 46 46 46 44
35 35 35 34 34 34 33 33 33 34 34 35 35 33 31 31 31 31 31 32 32 32 33 32 31 31 30 30 29 28 27 26 26 26 25 24 23 23 21 19 19 21 20 20 21 23 23 23 25 26 26 25 25 25 24 23 23 24 24 25 29 33 36 41 43 41 38 37 35 32 36 44 42 37 41 41 35 35 39 42 46 47 45 44 43
36 35 34 34 33 33 32 32 33 33 34 35 36 35 34 33 32 32 32 33 33 33 34 33 33 32 32 31 30 29 27 26 25 25 24 22 22 23 23 21 19 18 18 17 19 21 22 21 22 25 27 28 25 22 22 23 23 23 24 26 29 30 34 40 44 45 41 37 33 29 32 41 42 39 42 43 38 37 40 40 42 45 44 43 43
35 35 34 33 33 32 32 33 33 34 34 35 36 35 34 34 33 33 33 33 33 34 34 34 34 33 33 32 30 28 27 25 26 25 23 21 22 24 25 25 23 20 18 17 19 21 19 18 21 25 27 27 25 22 21 21 21 22 23 27 28 28 32 37 41 45 45 39 32 30 34 41 41 36 38 41 37 37 39 38 36 37 39 41 41
34 35 34 33 33 33 33 33 33 33 33 33 34 34 34 33 33 32 32 33 33 34 34 34 34 33 33 33 31 29 27 25 26 25 21 21 23 25 26 27 27 24 19 17 17 19 19 20 23 26 26 26 24 21 19 18 18 20 23 26 27 27 31 33 35 41 47 43 34 33 38 43 41 36 37 40 41 38 34 31 30 30 32 33 34
34 34 34 34 34 34 33 34 33 33 32 32 33 33 33 32 32 31 32 32 33 34 34 33 33 33 32 32 32 30 27 25 25 24 21 21 24 25 26 28 27 24 20 16 16 16 18 21 25 25 25 25 22 19 18 17 18 20 22 24 26 27 29 30 32 36 42 43 36 33 36 39 39 38 37 37 41 42 34 27 28 29 28 28 29
Wind_Direction
125 122 118 113 103 97 93 88 83 78 70 63 65 58 61 67 58 48 43 56 69 90 102 101 100 106 105 92 82 76 75 82 78 85 91 90 90 84 93 115 117 115 113 109 107 109 104 98 98 93 87 82 80 77 76 72 68 65 63 72 75 75 73 65 51 29 23 16 8 9 8 10 14 11 8 7 6 6 7 6 5 2 359 358 356
136 132 124 113 99 94 88 84 75 67 62 46 68 65 47 53 58 43 28 55 68 85 102 111 120 120 109 95 88 77 71 77 75 79 92 92 86 81 81 97 113 116 116 116 116 112 103 96 93 92 85 81 76 65 64 69 69 63 48 50 51 47 46 42 37 28 19 16 11 10 9 11 9 2 357 357 0 2 2 360 357 355 352 350 348
151 137 120 107 94 89 80 81 69 61 61 26 47 63 51 41 50 45 33 54 69 97 106 114 126 123 106 95 88 79 75 78 78 77 91 98 97 93 84 78 91 100 102 106 109 106 102 103 98 91 80 73 68 54 52 49 52 59 39 34 31 23 27 29 29 26 19 14 12 8 10 11 5 359 352 354 357 355 353 350 350 351 348 345 346
154 139 122 109 100 94 79 77 71 57 50 44 43 50 48 29 35 41 37 53 64 94 111 120 126 116 101 94 87 79 75 79 86 81 82 92 97 104 105 91 75 75 70 71 94 111 108 111 110 100 86 68 53 49 48 30 19 30 33 24 9 358 5 11 8 13 11 5 7 7 9 8 4 1 356 354 351 345 343 342 344 348 346 343 344
155 146 129 111 108 104 86 75 77 62 26 46 45 32 36 30 30 34 37 64 85 104 114 121 119 103 91 87 86 80 70 71 79 82 77 79 83 84 93 99 79 62 55 45 53 108 134 124 120 120 95 74 32 42 36 358 353 2 19 13 354 345 344 347 341 347 352 350 354 357 355 353 349 347 347 346 342 337 337 337 340 342 342 341 340
166 157 140 119 117 104 86 73 79 77 33 45 45 30 33 33 35 40 47 75 108 121 113 113 102 87 82 72 74 78 73 67 69 82 84 80 82 80 82 89 80 60 50 42 32 16 257 240 236 229 148 112 276 349 1 340 346 348 0 355 337 329 326 327 325 335 342 336 336 337 336 334 332 331 333 336 333 330 332 335 336 338 339 339 339
178 172 157 132 123 102 87 85 90 55 26 42 45 32 31 33 39 44 56 84 109 113 101 99 90 73 70 62 61 71 79 74 68 79 84 84 87 89 93 97 94 83 72 58 25 358 328 267 257 256 235 225 244 267 311 336 338 326 331 336 322 313 314 315 318 327 330 329 327 327 324 324 326 324 324 328 327 326 330 333 334 335 337 338 340
180 181 169 141 129 110 93 214 117 61 16 39 39 26 31 35 43 48 75 94 89 97 89 84 82 70 61 63 63 70 79 75 73 84 88 94 97 96 102 103 107 109 97 89 71 355 347 313 277 274 265 262 254 259 291 314 314 304 307 314 314 317 321 317 319 320 318 320 322 321 319 319 321 320 320 324 324 323 326 330 331 332 334 338 342
181 181 174 161 171 133 134 242 115 88 30 42 37 23 25 28 36 49 89 99 81 86 84 73 75 71 66 70 70 71 76 74 83 94 85 91 102 109 109 99 99 102 99 91 82 37 0 359 350 328 295 275 268 268 274 278 284 287 297 304 308 317 321 318 321 321 319 319 317 319 319 316 316 317 318 318 316 318 324 329 331 332 337 343 347
191 183 175 172 180 168 186 203 84 69 61 51 43 33 20 21 24 32 63 87 87 84 76 68 70 72 75 76 71 68 66 62 79 92 82 84 104 116 118 109 101 94 104 111 79 44 20 11 8 4 349 312 286 281 281 281 281 285 292 296 300 306 309 313 318 322 325 324 319 320 321 318 316 315 315 315 315 320 327 331 331 335 342 346 349
201 190 180 179 176 190 205 153 78 52 56 55 46 27 8 21 24 22 44 71 93 89 74 66 67 74 80 70 55 54 63 86 95 104 114 124 123 119 114 110 108 73 72 94 77 36 24 17 5 357 347 334 322 304 298 302 306 307 303 296 298 301 301 304 310 316 320 321 320 319 320 320 317 314 313 315 319 325 329 331 331 337 343 346 351
207 203 194 191 187 193 208 173 100 56 53 60 52 22 6 18 26 28 44 64 80 76 70 70 71 76 80 65 44 42 57 112 132 127 122 140 144 123 117 93 69 60 40 48 90 39 11 11 3 353 342 332 328 320 312 310 309 311 310 307 310 307 302 301 304 309 309 310 313 315 318 319 317 317 316 317 321 327 330 331 333 339 343 346 351
212 212 208 205 205 205 217 216 145 98 53 59 35 18 16 16 22 34 44 61 78 74 53 67 77 82 83 69 49 49 48 80 120 115 64 100 89 87 99 90 43 37 26 4 19 30 2 356 347 336 332 327 326 327 324 319 313 313 313 312 316 315 312 309 307 308 305 303 306 312 316 317 318 321 322 324 327 332 334 335 336 339 342 345 346
215 213 214 213 213 216 225 235 223 210 222 19 10 16 15 10 20 36 33 28 74 90 50 55 75 92 100 86 67 74 58 59 97 68 42 53 68 72 75 71 50 42 38 10 9 30 19 354 340 324 309 303 307 318 324 323 323 328 324 318 320 320 318 316 313 311 304 302 307 314 319 317 318 321 324 328 330 335 336 336 337 337 339 341 341
216 213 213 212 213 218 223 231 236 232 243 291 340 5 358 0 13 32 26 17 52 80 66 64 81 97 98 85 73 74 65 70 80 59 50 43 61 90 61 53 39 31 49 38 24 27 9 340 351 350 333 304 295 296 304 312 321 329 326 324 333 326 322 320 319 316 310 311 317 323 327 322 319 320 323 328 331 335 336 334 334 334 335 337 338
218 214 211 210 211 212 218 224 228 230 236 255 283 321 339 352 350 355 27 27 43 72 80 76 85 98 90 64 63 85 76 70 66 54 37 22 42 25 4 16 328 339 28 26 346 328 322 325 343 349 344 332 313 290 291 297 309 321 320 325 336 328 323 320 319 319 316 317 324 328 331 328 323 323 324 328 331 334 335 331 329 330 333 335 337
220 216 213 210 210 211 216 219 221 226 229 235 245 259 287 314 315 340 17 30 54 85 96 85 85 93 83 45 59 76 51 35 41 50 25 1 1 316 327 331 309 317 327 307 304 313 314 307 325 339 336 334 335 318 294 288 299 314 314 315 325 325 320 318 316 316 315 316 323 328 328 326 324 325 326 330 331 332 332 329 330 331 331 332 334
225 221 218 214 211 212 215 216 220 222 224 228 231 237 246 257 289 332 0 17 52 83 107 113 102 68 62 27 31 38 17 11 21 37 37 25 358 312 317 307 290 302 303 297 306 314 306 296 317 331 328 333 342 335 312 293 297 300 297 304 318 322 319 317 310 306 307 308 315 319 319 321 323 326 327 328 328 327 328 328 327 326 326 327 330
229 225 222 221 217 215 216 217 217 219 222 225 224 227 240 248 270 313 346 17 49 73 112 144 89 55 86 41 15 348 350 5 8 18 28 27 17 353 332 315 295 295 298 297 295 295 293 295 308 313 311 323 337 336 328 315 311 299 292 305 317 318 315 312 303 297 296 297 302 306 307 309 313 317 320 321 321 320 320 320 318 318 317 319 322
229 227 226 227 225 221 221 219 216 218 220 221 221 218 224 234 256 294 331 16 43 60 101 164 109 102 175 189 259 310 339 1 343 351 1 5 18 45 45 7 340 313 296 299 291 284 288 290 293 293 295 307 320 328 330 325 325 316 309 313 315 315 314 307 299 295 291 287 287 287 287 291 293 297 301 302 304 305 305 306 306 306 305 306 307
230 227 226 228 230 227 225 223 218 217 219 218 220 218 217 222 231 256 299 350 15 42 46 64 109 163 217 253 239 286 319 309 298 315 340 337 0 30 23 6 359 347 326 320 305 298 294 289 295 296 288 293 305 312 311 315 320 313 308 310 309 309 308 303 297 290 285 282 280 279 278 279 280 281 281 282 283 284 287 290 292 292 291 292 292
233 230 227 227 230 229 226 226 220 217 218 215 218 220 219 219 219 229 249 286 316 19 12 353 32 193 244 281 279 281 283 268 270 276 295 308 315 333 342 349 354 355 338 318 305 301 292 284 291 294 285 283 292 298 293 296 304 301 299 299 300 301 298 294 289 282 279 276 274 274 274 274 275 276 275 274 274 274 276 279 281 282 282 281 282
234 232 230 228 230 229 225 225 221 218 217 214 215 217 220 225 224 224 228 237 249 256 287 312 336 333 304 288 292 273 264 265 266 277 294 305 306 317 336 350 345 340 324 306 303 301 289 283 282 280 277 275 279 285 288 290 292 292 291 290 289 289 286 281 277 273 271 269 269 268 270 271 272 274 274 275 274 273 273 273 275 276 277 278 277
232 231 231 230 230 229 225 223 222 221 217 214 216 214 216 225 226 226 229 229 228 228 242 237 278 318 301 270 270 254 251 258 260 270 288 298 305 312 324 335 329 326 316 306 308 302 290 284 278 274 277 277 276 278 285 289 289 290 290 288 287 283 280 275 270 269 267 266 266 266 267 268 268 270 272 273 273 273 272 272 273 273 274 275 275
232 229 229 229 230 229 226 225 222 221 221 217 218 218 220 226 227 229 228 229 231 221 225 230 239 273 254 238 244 250 252 257 263 267 275 288 298 302 306 315 316 315 310 309 318 309 290 283 277 274 273 273 274 278 284 287 292 301 297 293 295 290 288 286 278 274 272 270 271 270 270 269 269 270 270 271 272 272 272 271 271 272 272 273 273
235 232 229 227 229 228 226 226 223 221 223 221 221 221 223 228 231 233 233 234 236 226 224 228 231 247 248 238 233 240 251 254 260 265 268 277 288 293 297 301 304 306 304 309 328 333 301 289 295 292 282 273 269 275 292 292 295 308 308 299 300 298 293 292 288 284 281 280 279 278 277 276 275 274 273 272 272 271 271 271 270 270 269 270 270
237 235 232 228 227 227 225 226 226 226 225 223 224 224 224 227 231 234 235 237 240 233 227 226 228 237 250 254 246 236 246 251 254 264 268 268 270 275 285 295 301 306 304 303 315 320 303 284 285 289 294 292 283 308 338 327 312 315 315 306 304 303 296 291 289 287 285 284 283 283 282 282 281 280 279 277 275 273 272 271 270 269 269 268 268
237 236 234 231 229 228 227 226 227 229 228 225 225 226 228 227 230 237 237 237 242 241 233 229 229 233 243 257 257 242 241 244 245 251 256 259 264 270 275 283 290 298 305 307 311 315 314 301 284 288 300 316 326 327 326 322 317 315 312 306 303 302 299 294 289 286 285 284 283 284 283 283 282 282 282 281 279 278 275 274 272 270 269 269 269
235 235 234 233 231 230 229 228 227 228 228 227 227 228 232 230 230 240 241 236 240 243 238 232 232 233 240 252 260 257 252 255 258 258 265 272 279 284 283 278 279 287 297 304 309 313 310 303 297 294 299 312 318 316 314 312 310 307 305 302 299 298 298 297 292 287 285 285 284 284 284 284 283 283 282 282 281 280 279 278 276 274 273 271 270
231 233 234 232 231 231 230 229 228 227 227 228 230 230 233 234 232 239 246 239 235 240 241 237 236 236 239 249 259 265 266 272 274 270 278 289 291 291 291 287 287 288 291 297 304 310 309 302 297 289 296 309 317 315 311 307 303 300 298 297 295 294 294 293 291 289 287 287 286 286 285 284 284 283 283 282 281 281 280 279 279 278 276 275 273
228 230 231 231 231 230 229 228 229 229 228 228 232 232 233 236 235 237 248 247 239 237 241 244 244 243 243 249 256 261 266 271 268 262 274 287 290 289 291 293 294 293 294 294 295 301 304 296 293 292 296 307 315 314 312 308 303 299 296 294 293 293 291 289 287 287 286 286 285 284 284 284 284 284 283 282 282 281 280 279 279 278 277 276 275
228 228 228 229 231 230 228 229 229 230 230 230 233 236 235 237 238 236 241 249 246 238 238 243 248 249 250 251 253 255 260 267 268 266 271 280 283 283 287 292 293 293 295 293 291 297 303 300 301 303 300 301 306 309 309 306 303 300 296 292 291 290 290 289 288 288 286 285 284 283 283 283 283 283 282 281 281 280 279 279 278 278 277 276 275
228 227 227 227 229 230 230 230 231 231 232 231 232 237 238 238 240 238 237 242 244 239 235 237 244 250 252 254 256 256 257 261 266 268 271 278 283 284 286 288 290 291 292 292 293 298 304 306 308 309 308 305 304 304 304 303 303 303 300 297 294 292 292 293 293 293 290 288 287 287 287 285 284 283 281 280 279 278 278 278 278 277 277 276 274
226 226 226 226 227 229 230 232 232 233 234 233 233 236 238 239 241 242 241 242 244 245 245 246 250 254 256 257 258 258 258 260 262 264 266 269 272 276 281 286 288 290 292 295 296 297 301 305 306 307 308 309 307 306 306 304 303 301 299 299 298 298 298 298 298 297 295 294 292 291 290 288 286 284 282 281 279 278 277 276 276 276 276 275 274
226 225 225 226 227 228 230 232 233 233 235 235 234 234 237 239 240 242 244 245 248 251 254 257 258 258 258 259 259 259 260 261 262 263 265 265 265 268 274 281 286 290 294 297 298 297 298 299 299 300 301 300 300 302 303 303 302 301 300 299 300 300 302 302 301 299 298 298 297 295 292 289 287 284 282 280 278 277 276 275 274 274 273 273 273
226 224 223 225 227 229 230 231 232 233 234 235 235 236 238 238 239 241 243 246 248 251 254 256 256 255 257 259 259 260 261 262 265 266 267 269 271 273 277 281 286 290 292 293 294 293 293 292 293 294 294 293 295 297 299 300 301 301 301 301 301 302 303 302 301 299 298 298 296 294 291 288 286 284 283 281 279 277 275 273 272 271 271 270 269
224 224 223 224 227 229 230 231 232 233 234 235 236 237 238 238 239 240 243 245 248 250 252 253 252 252 255 256 258 259 260 262 267 270 272 275 278 283 286 289 292 291 286 283 284 282 283 287 290 291 292 295 297 298 299 300 300 300 301 301 303 305 305 303 300 299 300 300 300 298 296 293 289 286 284 282 281 280 278 276 273 271 270 268 267
222 224 224 224 226 229 231 231 232 233 235 236 237 237 237 238 239 240 242 244 247 248 249 251 252 253 255 256 257 258 259 262 266 271 276 280 284 287 290 292 294 292 287 284 281 278 278 282 287 292 297 300 301 302 303 303 302 302 302 302 304 304 304 303 304 304 305 304 303 302 301 300 297 294 290 287 284 282 281 279 276 274 271 269 267
222 225 226 226 227 229 231 232 233 234 236 237 238 237 236 236 238 239 240 242 244 246 247 249 252 254 255 257 257 257 258 262 266 272 277 281 284 286 288 290 291 290 288 285 281 278 277 279 285 292 297 299 300 301 302 303 302 302 303 303 302 301 303 306 308 308 306 304 302 301 301 301 301 299 297 293 290 287 285 283 279 276 274 272 270
223 225 227 230 230 231 232 233 233 235 238 239 239 237 235 235 237 239 240 240 242 245 249 251 251 253 255 258 261 262 262 263 267 272 276 279 281 283 284 285 286 286 283 277 274 275 276 277 281 285 290 294 296 298 302 303 302 303 304 302 300 302 307 309 308 307 306 305 304 305 304 303 304 305 304 302 299 296 294 291 286 282 278 275 273
223 225 226 229 232 234 233 233 234 235 237 239 239 237 235 235 236 238 240 240 242 246 250 252 252 254 255 256 260 264 266 267 269 272 274 276 277 279 280 281 280 278 273 269 271 273 275 276 275 276 281 287 292 298 303 303 301 303 304 302 301 303 306 306 306 308 308 306 308 310 310 307 306 308 308 306 305 304 303 300 295 289 285 281 278
223 224 225 227 230 233 235 234 234 235 236 238 238 237 236 235 236 238 239 241 244 247 249 251 253 255 256 257 259 262 265 268 270 271 272 273 274 274 273 274 274 269 263 265 268 268 271 273 273 273 276 282 289 295 299 299 299 301 304 305 305 305 306 305 305 308 307 305 308 311 312 312 311 309 308 307 306 304 301 304 305 300 294 290 284
225 225 226 227 228 230 234 235 234 235 236 237 238 237 236 236 236 238 240 242 245 247 249 250 252 254 256 258 260 262 265 266 268 269 270 271 272 272 270 268 266 263 258 258 260 262 266 269 271 273 274 281 290 293 293 294 297 301 305 307 306 305 306 304 304 307 308 306 307 308 310 314 313 311 311 309 308 305 303 306 311 310 305 299 294
225 226 227 229 229 229 232 235 236 236 237 238 238 238 236 236 236 238 240 243 245 247 249 250 252 253 255 257 259 262 265 267 268 268 269 270 271 270 269 265 261 258 254 254 255 256 259 263 267 270 272 283 292 293 290 294 301 308 310 308 306 303 301 299 298 301 305 306 305 304 308 312 312 311 311 310 309 309 309 310 313 312 310 307 303
227 229 230 231 232 232 233 236 238 237 238 240 239 237 237 236 236 236 239 242 245 248 249 251 252 253 254 255 256 259 262 265 268 269 269 271 271 270 266 262 260 257 253 252 253 253 257 259 262 268 274 282 289 290 293 302 308 312 310 307 307 304 299 298 297 298 302 306 308 307 307 310 312 310 310 311 310 311 311 311 310 309 309 308 308
230 232 233 234 235 235 236 238 239 239 239 241 240 238 236 236 236 236 238 240 243 246 249 251 252 253 254 255 256 257 260 262 265 267 268 271 272 271 268 262 259 257 252 251 251 252 255 258 263 272 278 279 282 289 300 309 309 306 303 302 304 304 304 305 304 303 305 309 312 309 304 309 312 308 306 309 310 308 308 308 308 309 308 308 309
232 233 235 237 238 239 239 240 241 241 241 241 241 239 236 235 235 236 237 239 241 244 247 249 251 253 254 256 257 258 259 261 263 265 268 270 270 269 268 265 261 258 254 251 250 249 250 255 265 275 277 276 282 293 303 306 303 301 299 297 300 304 307 307 306 307 310 313 314 307 300 307 313 307 303 306 304 300 299 301 306 310 310 309 310
233 235 236 238 240 241 242 242 242 243 242 242 242 241 239 238 238 237 238 240 241 243 245 247 250 252 254 256 257 258 259 260 261 262 264 266 264 262 262 263 262 260 258 256 256 254 251 255 265 270 270 274 285 298 302 300 300 300 297 295 300 306 308 306 307 310 313 315 315 309 301 306 312 308 306 307 304 299 299 300 304 310 311 310 310
233 236 237 238 239 240 241 241 242 242 243 243 244 243 242 241 241 241 241 242 242 243 244 246 248 251 253 254 256 257 258 258 259 260 259 256 253 255 257 259 259 259 258 257 262 265 265 265 267 268 272 282 296 302 300 298 299 299 297 300 305 309 308 307 309 313 316 317 318 314 306 306 309 306 304 305 303 300 302 301 301 304 306 308 309
231 235 236 237 238 238 239 241 242 243 243 244 245 245 244 243 243 243 243 244 244 244 244 246 247 249 251 253 254 255 255 255 256 257 253 246 244 248 252 254 255 258 259 259 264 273 280 277 271 272 280 291 298 298 297 297 297 297 298 302 306 308 308 308 311 315 316 315 315 314 309 308 309 307 305 306 305 302 301 300 299 299 301 303 305
230 232 235 237 238 239 240 242 244 244 244 245 246 246 244 243 242 242 242 243 244 244 244 245 247 248 249 252 253 253 252 251 252 251 245 238 238 242 246 249 253 258 261 263 264 267 272 273 273 278 286 292 294 295 296 296 295 296 300 304 308 312 312 312 314 314 311 309 311 313 310 308 308 308 308 308 307 305 304 302 301 302 301 299 299